YBWX

Details ICAO YBWX (BWB)
Name Barrow Island
Region Australia
Timezone Australia/Perth (UTC+8.0)
Plans Departing 16
Arriving 9
Stats Elevation 26 ft / 8 m (AMSL)
Location -20.861316° 115.406649°
Runways 1
Magnetic Variation 0.709° E
Sunrise 2018-05-21 22:45:02 UTC / 2018-05-22 06:45:02 Local
Sunset 2018-05-22 09:47:51 UTC / 2018-05-22 17:47:51 Local
Advertisement - Login to hide

Runways

ID Width Length Bearing (true) Bearing (mag) Surface Threshold Offset Overrun Length
03 98 ft / 30 m 6,250 ft / 1,905 m 26.48° 25.77° Asphalt 0 ft / 0 m 0 ft / 0 m
21 98 ft / 30 m 6,250 ft / 1,905 m 206.48° 205.77° Asphalt 0 ft / 0 m 0 ft / 0 m

Map

Weather


0- 5 10 15 20 25 30 35+ Temperature / ° C

Clouds and Precipitation
Forecast for 2018-05-22 06:00 UTC. Updated an hour ago

Ground ~20,000 ft ~40,000 ft Winds

METAR

YBWX 220600Z AUTO 06013KT //// // ////// 26/16 Q1014

TAF

Not found

Frequencies

Unicom 120.10 MHz CTAF
Warning: Do not use this data for real-world aviation or navigation. No guarantee of current accuracy is given.